TimeEDT,TemperatureF,Dew PointF,Humidity,Sea Level PressureIn,VisibilityMPH,Wind Direction,Wind SpeedMPH,Gust SpeedMPH,PrecipitationIn,Events,Conditions,WindDirDegrees,DateUTC
12:00 AM,64.9,57.2,76,29.90,-9999.0,North,-9999.0,-,N/A,,Unknown,0,2013-10-16 04:00:00
1:00 AM,64.2,57.2,78,29.88,-9999.0,North,-9999.0,-,N/A,,Unknown,0,2013-10-16 05:00:00
2:00 AM,66,56,61,29.87,,,9.2,,,,,,2013-10-16 06:00:00
2:00 AM,65.7,55.8,70,29.87,-9999.0,North,-9999.0,-,N/A,,Unknown,0,2013-10-16 06:00:00
3:00 AM,64.2,56.7,76,29.87,-9999.0,North,-9999.0,-,N/A,,Unknown,0,2013-10-16 07:00:00
4:00 AM,63.7,57.4,80,29.85,-9999.0,North,-9999.0,-,N/A,,Unknown,0,2013-10-16 08:00:00
5:00 AM,62,58,84,29.83,,NNE,12.7,,,,,20,2013-10-16 09:00:00
5:00 AM,62.2,58.5,87,29.83,-9999.0,North,-9999.0,-,0.04,,Unknown,0,2013-10-16 09:00:00
6:00 AM,61.2,58.8,92,29.83,-9999.0,North,-9999.0,-,0.08,,Unknown,0,2013-10-16 10:00:00
7:00 AM,62.1,59.0,90,29.83,-9999.0,North,-9999.0,-,N/A,,Unknown,0,2013-10-16 11:00:00
8:00 AM,63,60,86,29.83,,,11.5,,,,,,2013-10-16 12:00:00
8:00 AM,62.8,59.9,90,29.83,-9999.0,North,-9999.0,-,N/A,,Unknown,0,2013-10-16 12:00:00
9:00 AM,65.3,60.6,85,29.84,-9999.0,North,-9999.0,-,N/A,,Unknown,0,2013-10-16 13:00:00
10:00 AM,65.7,60.6,84,29.83,-9999.0,North,-9999.0,-,N/A,,Unknown,0,2013-10-16 14:00:00
11:00 AM,66,60,77,29.83,,NNE,9.2,,,,,20,2013-10-16 15:00:00
11:00 AM,66.4,60.4,81,29.83,-9999.0,North,-9999.0,-,N/A,,Unknown,0,2013-10-16 15:00:00
12:00 PM,66.9,59.9,78,29.81,-9999.0,North,-9999.0,-,N/A,,Unknown,0,2013-10-16 16:00:00
1:00 PM,67.6,59.0,74,29.78,-9999.0,North,-9999.0,-,N/A,,Unknown,0,2013-10-16 17:00:00
2:00 PM,68,58,64,29.76,,,12.7,,,,,,2013-10-16 18:00:00
2:00 PM,68.0,58.5,71,29.76,-9999.0,North,-9999.0,-,N/A,,Unknown,0,2013-10-16 18:00:00
3:00 PM,69.6,58.6,68,29.75,-9999.0,North,-9999.0,-,N/A,,Unknown,0,2013-10-16 19:00:00
4:00 PM,67.5,58.6,73,29.74,-9999.0,North,-9999.0,-,N/A,,Unknown,0,2013-10-16 20:00:00
5:00 PM,66,59,72,29.73,,SSE,10.4,,,,,150,2013-10-16 21:00:00
5:00 PM,66.2,59.2,78,29.73,-9999.0,North,-9999.0,-,N/A,,Unknown,0,2013-10-16 21:00:00
6:00 PM,64.2,61.0,89,29.73,-9999.0,North,-9999.0,-,0.04,,Unknown,0,2013-10-16 22:00:00
7:00 PM,63.9,60.8,90,29.73,-9999.0,North,-9999.0,-,N/A,,Unknown,0,2013-10-16 23:00:00
8:00 PM,63,59,83,29.75,,,5.8,,,,,,2013-10-17 00:00:00
8:00 PM,62.6,59.2,89,29.75,-9999.0,North,-9999.0,-,N/A,,Unknown,0,2013-10-17 00:00:00
9:00 PM,61.2,52.2,72,29.79,-9999.0,North,-9999.0,-,N/A,,Unknown,0,2013-10-17 01:00:00
10:00 PM,59.9,50.7,72,29.81,-9999.0,North,-9999.0,-,N/A,,Unknown,0,2013-10-17 02:00:00
11:00 PM,58,50,66,29.83,,NNE,20.7,,,,,30,2013-10-17 03:00:00
11:00 PM,58.3,49.6,73,29.83,-9999.0,North,-9999.0,-,N/A,,Unknown,0,2013-10-17 03:00:00